Overview Statistics Trail Chart Weather Telemetry Raw packets
 

This is the latest recevied weather packets stored in our database for station/object K7KAR-2. If no packets are shown the sender has not sent any weather packets the latest 10 day(s).

<< 2 3 4 5 6 7 8 >>
Time Temp. Humidity Pressure Rain* Wind** Luminosity Snow
1788599161 14.44° C 48% 1014.7 hPa 0 mm - 0 W/m² -
1788598856 14.44° C 48% 1014.7 hPa 0 mm - 0 W/m² -
1788598555 15.56° C 45% 1014.3 hPa 0 mm - 0 W/m² -
1788598251 16.11° C 43% 1014.4 hPa 0 mm - 0 W/m² -
1788597949 16.11° C 43% 1014.1 hPa 0 mm - 0 W/m² -
1788597645 16.67° C 42% 1014.4 hPa 0 mm - 0 W/m² -
1788597340 16.67° C 42% 1014.4 hPa 0 mm - 0 W/m² -
1788597037 16.67° C 42% 1014.4 hPa 0 mm - 0 W/m² -
1788596731 17.22° C 41% 1014.5 hPa 0 mm - 0 W/m² -
1788596427 17.22° C 41% 1014.6 hPa 0 mm - 0 W/m² -
1788596127 17.22° C 41% 1014.5 hPa 0 mm - 0 W/m² -
1788595826 17.22° C 41% 1014.6 hPa 0 mm - 0 W/m² -
1788595521 17.22° C 41% 1014.5 hPa 0 mm - 0 W/m² -
1788595217 17.22° C 41% 1014.4 hPa 0 mm - 0 W/m² -
1788594909 17.22° C 41% 1014.4 hPa 0 mm - 0 W/m² -
1788594609 17.78° C 41% 1014.6 hPa 0 mm - 0 W/m² -
1788594304 17.78° C 40% 1014.5 hPa 0 mm - 0 W/m² -
1788594000 17.78° C 40% 1014.6 hPa 0 mm - 0 W/m² -
1788593695 17.78° C 40% 1014.5 hPa 0 mm - 0 W/m² -
1788593390 17.78° C 40% 1014.4 hPa 0 mm - 0 W/m² -
1788593085 17.22° C 41% 1014.4 hPa 0 mm - 0 W/m² -
1788592780 17.78° C 40% 1014.5 hPa 0 mm - 0 W/m² -
1788592478 18.33° C 39% 1014 hPa 0 mm - 0 W/m² -
1788592176 18.33° C 38% 1014.1 hPa 0 mm - 0 W/m² -
1788591873 17.78° C 39% 1013.9 hPa 0 mm - 0 W/m² -

* Rain latest hour (hover to see other rain measurements)
** Current wind speed in m/s (hover to see current wind gust speed)